Find Local Weather

World > North America > United States > Arizona

Green Valley, Arizona Regional Weather

Lat: 31.85N, Lon: 111.01W
Wx Zone: AZZ504
Feedback
Expires:201901190000;;565448
ASUS45 KPSR 182310
RWRAZ 

ARIZONA HOURLY REGIONAL WEATHER ROUNDUP
NATIONAL WEATHER SERVICE PHOENIX AZ
400 PM MST FRI JAN 18 2019

NOTE: FAIR INDICATES FEW OR NO CLOUDS BELOW 12,000 FEET WITH NO
SIGNIFICANT WEATHER AND/OR OBSTRUCTIONS TO VISIBILITY.


AZZ503-504-507>509-190000-
SOUTHEAST ARIZONA
  
CITY           SKY/WX    TMP DP  RH WIND       PRES   REMARKS
TUCSON         SUNNY     65  41  41 NW8       30.13S                  
DAVIS-MONTHAN  MOSUNNY   65  41  41 NW16      30.11                   
RYAN FIELD     SUNNY     66  43  42 NW14      30.13S                  
NOGALES        SUNNY     65  37  35 NW9       30.13F                  
SIERRA VISTA   SUNNY     60  30  31 NW20G26   30.15S                  
DOUGLAS        SUNNY    N/A N/A N/A W15G23    30.10R                  
SAFFORD        LGT RAIN  64  36  35 W29G38    30.02R                  
$$


SKY/WX - Weather  TMP - Temperature  DP - Dew Point  RH - Relative Humidity
WIND - Wind Direction/Speed PRES - Barometric Pressure